Regional Weather Roundup
Issued by NWS

Home | Current Version | Previous Version | Text Only | Print | Product List | Glossary On
Versions: 1 2 3 4 5 6 7 8 9 10 11 12 13 14 15 16 17 18 19 20 21 22 23 24 25 26 27 28 29 30 31 32 33 34 35 36 37 38 39 40 41 42 43 44 45 46 47 48 49 50
000
ASUS43 KLMK 242310
RWRKY
KENTUCKY REGIONAL WEATHER ROUNDUP
NATIONAL WEATHER SERVICE LOUISVILLE KY
700 PM EDT THU JUL 24 2014

NOTE "FAIR" INDICATES FEW OR NO CLOUDS BELOW 12,000 FEET
WITH NO SIGNIFICANT WEATHER AND/OR OBSTRUCTIONS TO VISIBILITY.

KYZ001>023-026-027-061>063-070>075-250000-
WESTERN AND SOUTH CENTRAL KENTUCKY

CITY           SKY/WX    TMP DP  RH WIND       PRES   REMARKS
PADUCAH        MOSUNNY   78  59  51 N9        30.01F
HENDERSON      SUNNY     77  55  47 N6        30.00F
OWENSBORO      SUNNY     79  55  43 NE7       30.01F
HOPKINSVILLE   MOSUNNY   80  58  45 N9        29.99F
BOWLING GREEN  SUNNY     82  54  37 VRB5      29.98F
GLASGOW        SUNNY     80  53  39 NE7       29.99F
$$

KYZ024-025-028>034-038-045-046-053-250000-
NORTH CENTRAL KENTUCKY

CITY           SKY/WX    TMP DP  RH WIND       PRES   REMARKS
LOUISVILLE/SDF MOSUNNY   79  51  37 NE7       30.01F
LOUISVILLE/LOU PTSUNNY   78  53  41 NE8       30.02F
FORT KNOX      MOSUNNY   74  56  53 VRB3      30.00F
$$

KYZ035>037-039>044-047>052-055>060-089>105-250000-
NORTHEAST KENTUCKY

CITY           SKY/WX    TMP DP  RH WIND       PRES   REMARKS
LEXINGTON      PTSUNNY   75  55  49 NE9       30.02F
COVINGTON      MOSUNNY   74  51  44 NE8       30.02F
FRANKFORT      SUNNY     77  54  44 NE7       30.01F
$$

KYZ054-064>069-076>088-106>120-250000-
SOUTHEAST KENTUCKY

CITY           SKY/WX    TMP DP  RH WIND       PRES   REMARKS
JACKSON        CLOUDY    68  61  78 CALM      30.04F
LONDON         PTSUNNY   72  61  68 NE6       30.04F
SOMERSET       MOSUNNY   73  59  60 NE7       30.02F
MIDDLESBORO    CLOUDY    69  65  87 N9        30.03R
MONTICELLO     PTCLDY    75  64  68 NE9       30.03F
$$



USA.gov is the U.S. government's official web portal to all federal, state and local government web resources and services.